Regional Weather Roundup
Issued by NWS Newport/Morehead, NC

Current Version | Previous Version | Text Only | Print | Product List | Glossary Off
Versions: 1 2 3 4 5 6 7 8 9 10 11 12 13 14 15 16 17 18 19 20 21 22 23 24 25 26 27 28 29 30 31 32 33 34 35 36 37 38 39 40 41 42 43 44 45 46 47 48 49 50
000 ASUS42 KMHX 182313 RWRMHX WEATHER ROUNDUP FOR EASTERN NORTH CAROLINA NATIONAL WEATHER SERVICE NEWPORT/MOREHEAD CITY NC 600 PM EST WED JAN 18 2017 NOTE: "FAIR" INDICATES FEW OR NO CLOUDS BELOW 12,000 FEET WITH NO SIGNIFICANT WEATHER AND/OR OBSTRUCTIONS TO VISIBILITY NCZ015>017-031-032-045>047-102-103-190000- NORTH COAST CITY SKY/WX TMP DP RH WIND PRES REMARKS EDENTON MOCLDY 54 47 77 CALM 30.00R ELIZABETH CITY CLEAR 48 43 82 NE5 30.00R KITTY HAWK NOT AVBL MANTEO CLOUDY 49 46 92 NE10 29.99R $$ NCZ045>047-081-094-103-104-190000- CENTRAL COAST CITY SKY/WX TMP DP RH WIND PRES REMARKS FRISCO PTCLDY 51 46 83 NE12G17 29.98R $$ NCZ095-097-098-100-101-190000- SOUTHERN COAST CITY SKY/WX TMP DP RH WIND PRES REMARKS BEAUFORT CLEAR 54 45 71 NE9 30.00R CEDAR ISLAND NOT AVBL JACKSONVILLE CLEAR 64 40 41 N12 29.97R PINEY ISLAND NOT AVBL WILMINGTON CLEAR 67 44 43 N9 29.97R $$ NCZ011>013-027>030-043-044-078>080-089-090>093-098-190000- COASTAL PLAIN CITY SKY/WX TMP DP RH WIND PRES REMARKS AHOSKIE N/A 52 48 85 CALM 30.01R CLINTON CLEAR 64 41 42 N3 29.99R ELIZABETHTOWN CLEAR 68 39 35 CALM 29.98R GOLDSBORO CLEAR 62 35 36 N7 29.97R GREENVILLE CLEAR 59 37 44 N5 30.02R HAVELOCK CLEAR 54 45 71 E12 29.99R KENANSVILLE CLEAR 63 39 42 N5 29.99R KINSTON CLEAR 59 37 44 NW5 30.00R NEW BERN CLEAR 59 39 47 NE12 29.99R RICHLANDS CLEAR 62 41 46 VRB3 29.98R ROCKY MOUNT CLEAR 58 38 47 N7 30.00R WASHINGTON CLEAR 54 47 75 NE7 N/A WHITEVILLE CLEAR 68 44 41 CALM 29.97R $$ AMZ130-135-150-152-154-156-158-170-250-252-270-ANZ085-086-088-633-658-670-190000- MARINE OBSERVATIONS STATION/POSITION TIME TEMP WIND PRES WAVE SWELL AIR SEA DIR/SP/G HT/PER HT/PER (UTC) (F) (DEG/KT/KT) (MB) (FT/S) (FT/S) CHESAPEAKE LIGHT NOT AVBL 64 E VA BEACH 2250 52 56 340/ 16/ 17 1014.6 5/ 5 2/11 DUCK 2248 47 46 360/ 10/ 10 1014.9 2 E DUCK 2230 46 N/A 3/ 4 OREGON INLET 2242 48 51 360/ 6/ 8 1015.2 13E OREGON INLT NOT AVBL HATTERAS CG 2248 51 55 10/ 16/ 19 1014.7 DIAMOND BUOY 2250 55 72 20/ 27/ 33 1014.0 6/ 6 2/17 CAPE LOOKOUT 2300 54 20/ 13/ 15 1015.3 BEAUFORT LAB 2248 54 51 50/ 9/ 14 1014.6 30 SE NEW RVR IN 2208 62 62 310/ 10/ 12 1013.9 30 SE NEW RVR IN 2243 62 N/A 5/ 6 27 SE WRIGHTSVLE 2208 65 68 300/ 6/ 10 1013.6 5 SE WRIGHTSVLE NOT AVBL 225 S CAPE HAT 2250 73 72 260/ 21/ 25 1012.4 8/ 7 41 SE CHARLESTON 2150 70 72 240/ 21/ 25 1014.1 5/ 5 $$

USA.gov is the U.S. government's official web portal to all federal, state and local government web resources and services.